Date String (YYYY-MM-DD hh:mm:ss) UTC,Instrument flags,Ambient pressure (hPa),Sample flow (lpm),Bypass flow (lpm),Sample temperature (°C),Ambient temperature (°C),ASC tube jacket temperature (°C),LED temperature (°C),Box temperature (°C),Sample RH (%),Span deviation,Mass concentration (μg/m³),Mass concentration (μg/m³),Mass concentration (μg/m³)
DateTimeUTC,F1_M11,P_M11,Q1_M11,Q2_M11,T1_M11,T2_M11,T3_M11,T4_M11,T5_M11,U1_M11,ZSPAN_M11,X0_M11,X2_M11,X1_M11
2022-10-15 20:00:00,,0829.1,5.01,0.00,30.2,29.0,00.0,38.9,32.0,13.8,0000.0,0012.73,0005.25,0004.63
2022-10-15 20:01:00,,0829.0,5.00,0.00,30.2,29.1,00.0,38.9,32.0,13.7,0000.0,0012.89,0005.22,0004.60
2022-10-15 20:02:00,,0829.1,4.99,0.00,30.2,29.1,00.0,38.9,32.1,13.9,0000.0,0012.39,0005.16,0004.56
2022-10-15 20:03:00,,0829.0,5.00,0.00,30.2,29.1,00.0,39.0,32.1,13.8,0000.0,0012.70,0005.15,0004.54
2022-10-15 20:04:00,,0829.0,5.00,0.00,30.2,29.1,00.0,39.0,32.1,13.7,0000.0,0013.05,0005.13,0004.51
2022-10-15 20:05:00,,0829.0,5.00,0.00,30.3,29.2,00.0,39.0,32.1,13.7,0000.0,0013.80,0005.14,0004.49
2022-10-15 20:06:00,,0829.0,5.00,0.00,30.3,29.2,00.0,39.0,32.1,13.7,0000.0,0014.11,0005.17,0004.48
2022-10-15 20:07:00,,0829.0,5.00,0.00,30.3,29.0,00.0,39.0,32.2,13.7,0000.0,0014.45,0005.17,0004.46
2022-10-15 20:08:00,,0829.0,5.00,0.00,30.3,27.7,00.0,39.0,32.0,13.7,0000.0,0014.03,0005.16,0004.43
2022-10-15 20:09:00,,0829.0,4.99,0.00,30.2,27.0,00.0,38.9,31.9,13.8,0000.0,0013.61,0005.16,0004.41
2022-10-15 20:10:00,,0829.0,5.00,0.00,30.2,27.0,00.0,38.9,31.8,13.8,0000.0,0013.31,0005.12,0004.38
2022-10-15 20:11:00,,0829.0,5.01,0.00,30.1,27.3,00.0,38.9,31.7,13.9,0000.0,0013.19,0005.05,0004.36
2022-10-15 20:12:00,,0829.0,5.01,0.00,30.0,27.6,00.0,38.9,31.8,13.9,0000.0,0013.13,0005.01,0004.35
2022-10-15 20:13:00,,0829.0,4.99,0.00,30.0,27.9,00.0,38.9,31.7,14.0,0000.0,0013.07,0004.98,0004.33
2022-10-15 20:14:00,,0829.0,5.00,0.00,30.0,28.1,00.0,38.9,31.8,14.0,0000.0,0012.89,0004.91,0004.30
2022-10-15 20:15:00,,0829.0,5.00,0.00,30.0,28.3,00.0,38.8,31.8,14.0,0000.0,0012.55,0004.87,0004.28
2022-10-15 20:16:00,,0829.0,5.00,0.00,30.0,28.4,00.0,38.8,31.8,14.0,0000.0,0012.16,0004.85,0004.24
2022-10-15 20:17:00,,0829.1,5.01,0.00,30.0,28.5,00.0,38.8,31.8,14.0,0000.0,0012.50,0004.79,0004.21
2022-10-15 20:18:00,,0829.1,5.00,0.00,30.0,28.6,00.0,38.8,31.9,14.0,0000.0,0012.08,0004.77,0004.19
2022-10-15 20:19:00,,0829.1,4.99,0.00,30.0,28.7,00.0,38.9,31.9,14.0,0000.0,0013.10,0004.77,0004.19
2022-10-15 20:20:00,,0829.1,5.00,0.00,30.0,28.8,00.0,38.9,31.9,13.9,0000.0,0014.24,0004.78,0004.19
2022-10-15 20:21:00,,0829.0,5.00,0.00,30.1,28.9,00.0,38.9,31.9,13.9,0000.0,0014.68,0004.79,0004.20
2022-10-15 20:22:00,,0829.1,5.01,0.00,30.1,28.9,00.0,38.9,32.0,13.8,0000.0,0014.26,0004.84,0004.20
2022-10-15 20:23:00,,0829.0,5.01,0.00,30.1,29.0,00.0,38.9,32.0,13.9,0000.0,0014.58,0004.83,0004.19
2022-10-15 20:24:00,,0829.0,4.99,0.00,30.1,29.0,00.0,38.9,32.0,13.9,0000.0,0013.82,0004.81,0004.18
2022-10-15 20:25:00,,0829.0,4.99,0.00,30.1,29.0,00.0,38.9,32.0,13.9,0000.0,0013.41,0004.79,0004.17
2022-10-15 20:26:00,,0829.0,4.99,0.00,30.2,29.1,00.0,38.9,32.0,13.9,0000.0,0013.45,0004.81,0004.17
2022-10-15 20:27:00,,0829.0,5.00,0.00,30.2,29.1,00.0,38.9,32.0,13.9,0000.0,0013.18,0004.78,0004.18
2022-10-15 20:28:00,,0829.0,5.01,0.00,30.2,28.8,00.0,38.9,32.0,13.9,0000.0,0012.67,0004.81,0004.19
2022-10-15 20:29:00,,0829.0,4.98,0.00,30.2,27.3,00.0,38.9,31.9,13.9,0000.0,0012.41,0004.83,0004.19
2022-10-15 20:30:00,,0829.0,5.02,0.00,30.1,26.3,00.0,38.8,31.8,13.9,0000.0,0011.45,0004.81,0004.20
2022-10-15 20:31:00,,0829.0,5.00,0.00,30.0,26.3,00.0,38.8,31.7,14.0,0000.0,0009.99,0004.77,0004.18
2022-10-15 20:32:00,,0829.0,5.01,0.00,29.9,26.6,00.0,38.7,31.5,14.2,0000.0,0009.71,0004.77,0004.16
2022-10-15 20:33:00,,0829.1,5.01,0.00,29.9,27.0,00.0,38.7,31.5,14.3,0000.0,0009.70,0004.77,0004.14
2022-10-15 20:34:00,,0829.1,4.99,0.00,29.8,27.4,00.0,38.7,31.5,14.3,0000.0,0009.04,0004.75,0004.12
2022-10-15 20:35:00,,0829.1,5.00,0.00,29.8,27.6,00.0,38.7,31.5,14.2,0000.0,0009.04,0004.74,0004.12
2022-10-15 20:36:00,,0829.1,5.01,0.00,29.8,27.9,00.0,38.7,31.5,14.2,0000.0,0009.42,0004.73,0004.12
2022-10-15 20:37:00,,0829.1,5.00,0.00,29.8,28.1,00.0,38.7,31.6,14.3,0000.0,0009.85,0004.75,0004.11
2022-10-15 20:38:00,,0829.0,4.98,0.00,29.8,28.2,00.0,38.6,31.6,14.3,0000.0,0010.42,0004.75,0004.11
2022-10-15 20:39:00,,0829.0,5.01,0.00,29.8,28.3,00.0,38.6,31.6,14.4,0000.0,0010.30,0004.71,0004.09
2022-10-15 20:40:00,,0829.0,5.00,0.00,29.8,28.4,00.0,38.6,31.6,14.4,0000.0,0011.42,0004.71,0004.07
2022-10-15 20:41:00,,0829.1,4.99,0.00,29.8,28.5,00.0,38.6,31.7,14.3,0000.0,0011.67,0004.75,0004.05
2022-10-15 20:42:00,,0829.0,5.00,0.00,29.8,28.6,00.0,38.6,31.7,14.3,0000.0,0012.33,0004.77,0004.05
2022-10-15 20:43:00,,0829.1,5.00,0.00,29.9,28.7,00.0,38.7,31.8,14.2,0000.0,0012.42,0004.77,0004.06
2022-10-15 20:44:00,,0829.1,5.00,0.00,29.9,28.8,00.0,38.7,31.7,14.3,0000.0,0012.30,0004.77,0004.06
2022-10-15 20:45:00,,0829.0,5.00,0.00,29.9,28.8,00.0,38.7,31.8,14.3,0000.0,0012.53,0004.78,0004.07
2022-10-15 20:46:00,,0829.1,5.01,0.00,29.9,28.9,00.0,38.7,31.8,14.3,0000.0,0012.69,0004.74,0004.05
2022-10-15 20:47:00,,0829.1,5.00,0.00,30.0,28.9,00.0,38.7,31.9,14.2,0000.0,0012.50,0004.73,0004.04
2022-10-15 20:48:00,,0829.1,5.00,0.00,30.0,29.0,00.0,38.7,31.9,14.2,0000.0,0011.99,0004.68,0004.03
2022-10-15 20:49:00,,0829.1,5.00,0.00,30.0,29.0,00.0,38.8,31.9,14.3,0000.0,0011.44,0004.67,0004.01
2022-10-15 20:50:00,,0829.1,5.00,0.00,30.0,29.0,00.0,38.8,32.0,14.2,0000.0,0011.06,0004.64,0004.00
2022-10-15 20:51:00,,0829.1,4.99,0.00,30.1,29.1,00.0,38.8,32.0,14.2,0000.0,0009.92,0004.59,0003.99
2022-10-15 20:52:00,,0829.1,4.99,0.00,30.1,29.1,00.0,38.8,32.0,14.1,0000.0,0010.39,0004.60,0003.99
2022-10-15 20:53:00,,0829.0,5.00,0.00,30.1,29.2,00.0,38.8,32.0,14.1,0000.0,0009.90,0004.60,0003.99
2022-10-15 20:54:00,,0829.1,5.00,0.00,30.2,29.2,00.0,38.9,32.1,14.2,0000.0,0009.82,0004.60,0003.98
2022-10-15 20:55:00,,0829.1,5.00,0.00,30.2,29.2,00.0,38.9,32.1,14.1,0000.0,0010.08,0004.57,0003.97
2022-10-15 20:56:00,,0829.1,5.00,0.00,30.2,29.2,00.0,38.9,32.1,14.0,0000.0,0009.79,0004.55,0003.97
2022-10-15 20:57:00,,0829.1,5.00,0.00,30.2,29.2,00.0,38.9,32.1,14.0,0000.0,0009.53,0004.61,0004.01
2022-10-15 20:58:00,,0829.0,5.00,0.00,30.2,27.9,00.0,38.9,32.1,14.0,0000.0,0009.27,0004.64,0004.03
2022-10-15 20:59:00,,0829.0,5.01,0.00,30.2,27.0,00.0,38.9,32.0,14.2,0000.0,0009.26,0004.66,0004.04
